Time,TemperatureF,DewpointF,PressureIn,WindDirection,WindDirectionDegrees,WindSpeedMPH,WindSpeedGustMPH,Humidity,HourlyPrecipIn,Conditions,Clouds,dailyrainin,SoftwareType,DateUTC
2013-07-29 00:02:00,57.0,51.0,-100.00,NW,310,2.0,4.0,80,0.00,,,-99.99,,2013-07-29 05:02:00,
2013-07-29 00:12:00,57.0,52.0,-100.00,NW,325,2.0,2.0,81,0.00,,,-99.99,,2013-07-29 05:12:00,
2013-07-29 00:32:00,57.0,51.0,-100.00,NW,325,2.0,3.0,81,0.00,,,-99.99,,2013-07-29 05:32:00,
2013-07-29 00:42:00,56.0,51.0,-100.00,WNW,300,3.0,4.0,82,0.00,,,-99.99,,2013-07-29 05:42:00,
2013-07-29 00:53:00,55.0,50.0,-100.00,NW,305,4.0,4.0,83,0.00,,,-99.99,,2013-07-29 05:53:00,
2013-07-29 01:02:00,55.0,50.0,-100.00,NW,305,4.0,5.0,84,0.00,,,-99.99,,2013-07-29 06:02:00,
2013-07-29 01:12:00,55.0,50.0,-100.00,NW,305,4.0,6.0,84,0.00,,,-99.99,,2013-07-29 06:12:00,
2013-07-29 01:32:00,55.0,51.0,-100.00,NW,310,4.0,5.0,85,0.00,,,-99.99,,2013-07-29 06:32:00,
2013-07-29 01:43:00,55.0,51.0,-100.00,NW,325,3.0,6.0,85,0.00,,,-99.99,,2013-07-29 06:43:00,
2013-07-29 02:12:00,55.0,50.0,-100.00,NW,315,3.0,4.0,85,0.00,,,-99.99,,2013-07-29 07:12:00,
2013-07-29 02:22:00,55.0,50.0,-100.00,NW,315,3.0,4.0,85,0.00,,,-99.99,,2013-07-29 07:22:00,
2013-07-29 02:33:00,54.0,50.0,-100.00,NNW,340,3.0,4.0,85,0.01,,,-99.99,,2013-07-29 07:33:00,
2013-07-29 02:43:00,55.0,51.0,-100.00,North,0,2.0,4.0,85,0.00,,,-99.99,,2013-07-29 07:43:00,
2013-07-29 02:53:00,55.0,51.0,-100.00,North,355,3.0,4.0,85,0.00,,,-99.99,,2013-07-29 07:53:00,
2013-07-29 03:12:00,55.0,50.0,-100.00,North,355,2.0,4.0,85,0.00,,,-99.99,,2013-07-29 08:12:00,
2013-07-29 03:22:00,53.0,49.0,-100.00,NW,325,2.0,3.0,85,0.00,,,-99.99,,2013-07-29 08:22:00,
2013-07-29 03:33:00,53.0,49.0,-100.00,NNW,335,2.0,3.0,85,0.00,,,-99.99,,2013-07-29 08:33:00,
2013-07-29 03:42:00,53.0,49.0,-100.00,NW,315,2.0,3.0,85,0.00,,,-99.99,,2013-07-29 08:42:00,
2013-07-29 04:12:00,53.0,49.0,-100.00,NNW,330,2.0,3.0,85,0.00,,,-99.99,,2013-07-29 09:12:00,
2013-07-29 04:22:00,53.0,49.0,-100.00,NNW,340,3.0,4.0,85,0.00,,,-99.99,,2013-07-29 09:22:00,
2013-07-29 04:33:00,53.0,48.0,-100.00,NW,310,3.0,4.0,85,0.00,,,-99.99,,2013-07-29 09:33:00,
2013-07-29 04:43:00,52.0,48.0,-100.00,WNW,300,4.0,6.0,86,0.00,,,-99.99,,2013-07-29 09:43:00,
2013-07-29 05:04:00,51.0,48.0,-100.00,NW,305,5.0,6.0,86,0.00,,,-99.99,,2013-07-29 10:04:00,
2013-07-29 05:14:00,51.0,48.0,-100.00,NW,310,4.0,5.0,86,0.00,,,-99.99,,2013-07-29 10:14:00,
2013-07-29 05:25:00,51.0,47.0,-100.00,NW,305,4.0,4.0,86,0.00,,,-99.99,,2013-07-29 10:25:00,
2013-07-29 05:37:00,51.0,47.0,-100.00,NW,305,4.0,4.0,86,0.00,,,-99.99,,2013-07-29 10:37:00,
2013-07-29 05:48:00,50.0,47.0,-100.00,West,280,5.0,6.0,87,0.00,,,-99.99,,2013-07-29 10:48:00,
2013-07-29 05:53:00,51.0,47.0,-100.00,West,280,4.0,6.0,87,0.00,,,-99.99,,2013-07-29 10:53:00,
2013-07-29 06:05:00,51.0,47.0,-100.00,West,280,4.0,6.0,87,0.00,,,-99.99,,2013-07-29 11:05:00,
2013-07-29 06:15:00,51.0,47.0,-100.00,WNW,290,3.0,6.0,87,0.00,,,-99.99,,2013-07-29 11:15:00,
2013-07-29 06:24:00,51.0,47.0,-100.00,WNW,285,4.0,6.0,87,0.00,,,-99.99,,2013-07-29 11:24:00,
2013-07-29 06:44:00,54.0,50.0,-100.00,NW,310,4.0,4.0,87,0.00,,,-99.99,,2013-07-29 11:44:00,
2013-07-29 07:09:00,53.0,50.0,-100.00,WNW,285,4.0,6.0,87,0.00,,,-99.99,,2013-07-29 12:09:00,
2013-07-29 07:15:00,55.0,51.0,-100.00,West,275,3.0,4.0,87,0.00,,,-99.99,,2013-07-29 12:15:00,
2013-07-29 07:26:00,56.0,52.0,-100.00,WNW,290,4.0,4.0,87,0.00,,,-99.99,,2013-07-29 12:26:00,
2013-07-29 07:35:00,56.0,52.0,-100.00,WNW,290,4.0,4.0,87,0.00,,,-99.99,,2013-07-29 12:35:00,
2013-07-29 08:36:00,63.0,53.0,-100.00,NW,305,3.0,7.0,70,0.00,,,-99.99,,2013-07-29 13:36:00,
2013-07-29 08:44:00,63.0,54.0,-100.00,NNE,25,3.0,5.0,70,0.00,,,-99.99,,2013-07-29 13:44:00,
2013-07-29 09:35:00,68.0,56.0,-100.00,NNW,335,2.0,4.0,65,0.00,,,-99.99,,2013-07-29 14:35:00,
2013-07-29 09:45:00,69.0,54.0,-100.00,West,275,2.0,4.0,59,0.00,,,-99.99,,2013-07-29 14:45:00,
2013-07-29 09:55:00,70.0,54.0,-100.00,North,350,1.0,4.0,55,0.00,,,-99.99,,2013-07-29 14:55:00,
2013-07-29 10:15:00,72.0,52.0,-100.00,WNW,290,2.0,6.0,49,0.00,,,-99.99,,2013-07-29 15:15:00,
2013-07-29 10:24:00,72.0,52.0,-100.00,WNW,290,2.0,6.0,49,0.00,,,-99.99,,2013-07-29 15:24:00,
2013-07-29 10:37:00,72.0,52.0,-100.00,NNE,30,1.0,4.0,49,0.00,,,-99.99,,2013-07-29 15:37:00,
2013-07-29 10:45:00,73.0,52.0,-100.00,North,10,4.0,6.0,47,0.00,,,-99.99,,2013-07-29 15:45:00,
2013-07-29 10:54:00,71.0,51.0,-100.00,East,85,3.0,4.0,48,0.00,,,-99.99,,2013-07-29 15:54:00,
2013-07-29 11:13:00,72.0,50.0,-100.00,North,10,1.0,4.0,45,0.00,,,-99.99,,2013-07-29 16:13:00,
2013-07-29 11:24:00,74.0,49.0,-100.00,NNW,340,3.0,5.0,41,0.00,,,-99.99,,2013-07-29 16:24:00,
2013-07-29 11:38:00,74.0,49.0,-100.00,North,0,3.0,5.0,42,0.00,,,-99.99,,2013-07-29 16:38:00,
2013-07-29 11:46:00,74.0,49.0,-100.00,SSW,195,2.0,5.0,41,0.00,,,-99.99,,2013-07-29 16:46:00,
2013-07-29 11:57:00,75.0,50.0,-100.00,South,175,1.0,5.0,40,0.00,,,-99.99,,2013-07-29 16:57:00,
2013-07-29 12:07:00,75.0,50.0,-100.00,South,175,1.0,5.0,40,0.00,,,-99.99,,2013-07-29 17:07:00,
2013-07-29 12:13:00,76.0,49.0,-100.00,NNE,15,2.0,5.0,39,0.00,,,-99.99,,2013-07-29 17:13:00,
2013-07-29 12:24:00,74.0,49.0,-100.00,ENE,60,2.0,6.0,40,0.00,,,-99.99,,2013-07-29 17:24:00,
2013-07-29 12:40:00,74.0,49.0,-100.00,ENE,60,2.0,6.0,40,0.00,,,-99.99,,2013-07-29 17:40:00,
2013-07-29 12:56:00,75.0,48.0,-100.00,ENE,65,2.0,6.0,38,0.00,,,-99.99,,2013-07-29 17:56:00,
2013-07-29 13:06:00,76.0,49.0,-100.00,WSW,255,2.0,6.0,38,0.00,,,-99.99,,2013-07-29 18:06:00,
2013-07-29 13:15:00,77.0,49.0,-100.00,WNW,295,5.0,9.0,37,0.00,,,-99.99,,2013-07-29 18:15:00,
2013-07-29 13:35:00,78.0,49.0,-100.00,South,185,4.0,6.0,35,0.00,,,-99.99,,2013-07-29 18:35:00,
2013-07-29 14:03:00,77.0,48.0,-100.00,WNW,285,2.0,7.0,35,0.00,,,-99.99,,2013-07-29 19:03:00,
2013-07-29 14:45:00,80.0,50.0,-100.00,West,270,4.0,7.0,35,0.00,,,-99.99,,2013-07-29 19:45:00,
2013-07-29 15:07:00,77.0,50.0,-100.00,West,260,1.0,5.0,38,0.00,,,-99.99,,2013-07-29 20:07:00,
2013-07-29 15:15:00,77.0,51.0,-100.00,WNW,295,2.0,7.0,39,0.00,,,-99.99,,2013-07-29 20:15:00,
2013-07-29 15:35:00,78.0,50.0,-100.00,NW,305,4.0,7.0,38,0.00,,,-99.99,,2013-07-29 20:35:00,
2013-07-29 15:47:00,78.0,50.0,-100.00,West,270,2.0,7.0,37,0.00,,,-99.99,,2013-07-29 20:47:00,
2013-07-29 16:05:00,79.0,51.0,-100.00,WNW,295,4.0,6.0,37,0.00,,,-99.99,,2013-07-29 21:05:00,
2013-07-29 16:18:00,78.0,50.0,-100.00,SW,220,2.0,7.0,38,0.00,,,-99.99,,2013-07-29 21:18:00,
2013-07-29 16:35:00,78.0,51.0,-100.00,SSW,195,3.0,7.0,38,0.00,,,-99.99,,2013-07-29 21:35:00,
2013-07-29 16:47:00,78.0,51.0,-100.00,West,275,4.0,6.0,38,0.00,,,-99.99,,2013-07-29 21:47:00,
2013-07-29 17:04:00,78.0,52.0,-100.00,WSW,240,4.0,9.0,40,0.00,,,-99.99,,2013-07-29 22:04:00,
2013-07-29 17:37:00,77.0,51.0,-100.00,SW,225,4.0,6.0,39,0.00,,,-99.99,,2013-07-29 22:37:00,
2013-07-29 17:44:00,76.0,51.0,-100.00,WSW,250,4.0,7.0,41,0.00,,,-99.99,,2013-07-29 22:44:00,
2013-07-29 18:26:00,77.0,50.0,-100.00,WSW,255,2.0,7.0,38,0.00,,,-99.99,,2013-07-29 23:26:00,
2013-07-29 18:44:00,76.0,48.0,-100.00,SSW,205,4.0,6.0,37,0.00,,,-99.99,,2013-07-29 23:44:00,
2013-07-29 18:54:00,76.0,49.0,-100.00,SSW,205,4.0,6.0,38,0.00,,,-99.99,,2013-07-29 23:54:00,
2013-07-29 19:25:00,75.0,50.0,-100.00,SSW,200,1.0,6.0,40,0.00,,,-99.99,,2013-07-30 00:25:00,
2013-07-29 19:34:00,74.0,50.0,-100.00,SW,230,2.0,4.0,42,0.00,,,-99.99,,2013-07-30 00:34:00,
2013-07-29 20:16:00,71.0,50.0,-100.00,SW,220,2.0,4.0,47,0.00,,,-99.99,,2013-07-30 01:16:00,
2013-07-29 20:23:00,71.0,49.0,-100.00,SSW,205,4.0,4.0,46,0.00,,,-99.99,,2013-07-30 01:23:00,
2013-07-29 20:44:00,70.0,50.0,-100.00,South,185,2.0,4.0,49,0.00,,,-99.99,,2013-07-30 01:44:00,
2013-07-29 21:13:00,69.0,50.0,-100.00,SSE,165,3.0,4.0,49,0.00,,,-99.99,,2013-07-30 02:13:00,
2013-07-29 21:24:00,69.0,49.0,-100.00,SSE,165,4.0,6.0,49,0.00,,,-99.99,,2013-07-30 02:24:00,
2013-07-29 21:37:00,68.0,50.0,-100.00,SSE,155,4.0,4.0,51,0.00,,,-99.99,,2013-07-30 02:37:00,
2013-07-29 21:45:00,67.0,50.0,-100.00,SE,130,3.0,4.0,54,0.00,,,-99.99,,2013-07-30 02:45:00,
2013-07-29 21:56:00,67.0,51.0,-100.00,SSE,155,4.0,4.0,56,0.00,,,-99.99,,2013-07-30 02:56:00,
2013-07-29 22:08:00,67.0,51.0,-100.00,SSE,155,4.0,4.0,56,0.00,,,-99.99,,2013-07-30 03:08:00,
2013-07-29 22:18:00,66.0,52.0,-100.00,SSE,165,4.0,5.0,58,0.00,,,-99.99,,2013-07-30 03:18:00,
2013-07-29 22:25:00,66.0,52.0,-100.00,SSE,160,4.0,5.0,59,0.00,,,-99.99,,2013-07-30 03:25:00,
2013-07-29 22:34:00,66.0,52.0,-100.00,SSE,160,4.0,5.0,59,0.00,,,-99.99,,2013-07-30 03:34:00,
2013-07-29 22:45:00,66.0,52.0,-100.00,SSE,155,3.0,5.0,60,0.00,,,-99.99,,2013-07-30 03:45:00,
2013-07-29 23:03:00,66.0,53.0,-100.00,SSE,160,4.0,6.0,62,0.00,,,-99.99,,2013-07-30 04:03:00,
2013-07-29 23:13:00,66.0,53.0,-100.00,South,170,5.0,6.0,63,0.00,,,-99.99,,2013-07-30 04:13:00,
2013-07-29 23:23:00,66.0,53.0,-100.00,South,170,5.0,6.0,63,0.00,,,-99.99,,2013-07-30 04:23:00,
2013-07-29 23:33:00,66.0,54.0,-100.00,SSE,150,5.0,7.0,65,0.00,,,-99.99,,2013-07-30 04:33:00,
2013-07-29 23:43:00,66.0,54.0,-100.00,SSE,155,4.0,6.0,65,0.00,,,-99.99,,2013-07-30 04:43:00,
2013-07-29 23:53:00,66.0,55.0,-100.00,SSE,160,4.0,7.0,67,0.00,,,-99.99,,2013-07-30 04:53:00,